Time,TemperatureF,DewpointF,PressureIn,WindDirection,WindDirectionDegrees,WindSpeedMPH,WindSpeedGustMPH,Humidity,HourlyPrecipIn,Conditions,Clouds,dailyrainin,SoftwareType,DateUTC
2013-02-20 00:01:00,2.0,0.0,-100.00,East,90,7.0,8.0,88,0.00,,,-99.99,,2013-02-20 06:01:00,
2013-02-20 00:11:00,3.0,0.0,-100.00,ENE,70,9.0,12.0,88,0.00,,,-99.99,,2013-02-20 06:11:00,
2013-02-20 00:21:00,3.0,0.0,-100.00,ENE,70,9.0,12.0,88,0.00,,,-99.99,,2013-02-20 06:21:00,
2013-02-20 00:31:00,3.0,0.0,-100.00,ENE,75,7.0,11.0,87,0.00,,,-99.99,,2013-02-20 06:31:00,
2013-02-20 00:42:00,3.0,0.0,-100.00,ENE,75,7.0,11.0,87,0.00,,,-99.99,,2013-02-20 06:42:00,
2013-02-20 00:51:00,2.0,-1.0,-100.00,ENE,75,6.0,10.0,87,0.00,,,-99.99,,2013-02-20 06:51:00,
2013-02-20 01:01:00,2.0,-1.0,-100.00,ENE,75,6.0,10.0,87,0.00,,,-99.99,,2013-02-20 07:01:00,
2013-02-20 01:11:00,2.0,-1.0,-100.00,ENE,60,4.0,7.0,87,0.00,,,-99.99,,2013-02-20 07:11:00,
2013-02-20 01:21:00,1.0,-2.0,-100.00,NE,55,4.0,7.0,87,0.00,,,-99.99,,2013-02-20 07:21:00,
2013-02-20 01:31:00,1.0,-1.0,-100.00,NNE,25,2.0,7.0,87,0.00,,,-99.99,,2013-02-20 07:31:00,
2013-02-20 01:41:00,1.0,-1.0,-100.00,NNE,25,2.0,7.0,87,0.00,,,-99.99,,2013-02-20 07:41:00,
2013-02-20 01:51:00,0.0,-3.0,-100.00,ENE,65,4.0,7.0,87,0.00,,,-99.99,,2013-02-20 07:51:00,
2013-02-20 02:05:00,0.0,-3.0,-100.00,East,80,6.0,8.0,88,0.00,,,-99.99,,2013-02-20 08:05:00,
2013-02-20 02:11:00,0.0,-2.0,-100.00,East,85,5.0,9.0,88,0.00,,,-99.99,,2013-02-20 08:11:00,
2013-02-20 02:21:00,0.0,-2.0,-100.00,East,90,4.0,9.0,88,0.00,,,-99.99,,2013-02-20 08:21:00,
2013-02-20 02:31:00,0.0,-2.0,-100.00,East,85,4.0,8.0,88,0.00,,,-99.99,,2013-02-20 08:31:00,
2013-02-20 02:41:00,0.0,-2.0,-100.00,East,85,4.0,8.0,88,0.00,,,-99.99,,2013-02-20 08:41:00,
2013-02-20 02:52:00,0.0,-3.0,-100.00,NE,55,3.0,4.0,88,0.00,,,-99.99,,2013-02-20 08:52:00,
2013-02-20 03:01:00,0.0,-3.0,-100.00,NE,55,3.0,4.0,88,0.00,,,-99.99,,2013-02-20 09:01:00,
2013-02-20 03:11:00,0.0,-3.0,-100.00,NNE,25,1.0,3.0,88,0.00,,,-99.99,,2013-02-20 09:11:00,
2013-02-20 03:21:00,-1.0,-4.0,-100.00,East,90,4.0,5.0,88,0.00,,,-99.99,,2013-02-20 09:21:00,
2013-02-20 03:31:00,-1.0,-3.0,-100.00,ENE,75,1.0,6.0,89,0.00,,,-99.99,,2013-02-20 09:31:00,
2013-02-20 03:41:00,-1.0,-3.0,-100.00,NE,35,2.0,2.0,90,0.00,,,-99.99,,2013-02-20 09:41:00,
2013-02-20 03:51:00,-2.0,-4.0,-100.00,East,85,4.0,4.0,90,0.00,,,-99.99,,2013-02-20 09:51:00,
2013-02-20 04:12:00,-2.0,-4.0,-100.00,East,80,3.0,5.0,90,0.00,,,-99.99,,2013-02-20 10:12:00,
2013-02-20 04:21:00,-1.0,-3.0,-100.00,North,-999,-999.0,-999.0,91,0.00,,,-99.99,,2013-02-20 10:21:00,
2013-02-20 04:31:00,-1.0,-3.0,-100.00,ENE,70,2.0,4.0,90,0.00,,,-99.99,,2013-02-20 10:31:00,
2013-02-20 04:41:00,-1.0,-3.0,-100.00,ENE,75,4.0,5.0,90,0.00,,,-99.99,,2013-02-20 10:41:00,
2013-02-20 04:51:00,-1.0,-3.0,-100.00,NNW,345,2.0,5.0,90,0.00,,,-99.99,,2013-02-20 10:51:00,
2013-02-20 05:02:00,-1.0,-3.0,-100.00,NNW,345,2.0,5.0,90,0.00,,,-99.99,,2013-02-20 11:02:00,
2013-02-20 05:11:00,-1.0,-3.0,-100.00,NE,45,2.0,4.0,90,0.00,,,-99.99,,2013-02-20 11:11:00,
2013-02-20 05:21:00,-1.0,-3.0,-100.00,NE,50,1.0,3.0,90,0.00,,,-99.99,,2013-02-20 11:21:00,
2013-02-20 05:32:00,-1.0,-3.0,-100.00,ENE,70,3.0,4.0,90,0.00,,,-99.99,,2013-02-20 11:32:00,
2013-02-20 05:41:00,-1.0,-3.0,-100.00,ENE,70,3.0,4.0,90,0.00,,,-99.99,,2013-02-20 11:41:00,
2013-02-20 05:52:00,-1.0,-3.0,-100.00,East,85,4.0,7.0,90,0.00,,,-99.99,,2013-02-20 11:52:00,
2013-02-20 06:01:00,-1.0,-3.0,-100.00,East,85,4.0,7.0,90,0.00,,,-99.99,,2013-02-20 12:01:00,
2013-02-20 06:12:00,-1.0,-3.0,-100.00,East,95,4.0,6.0,90,0.00,,,-99.99,,2013-02-20 12:12:00,
2013-02-20 06:21:00,-1.0,-3.0,-100.00,East,80,4.0,9.0,90,0.00,,,-99.99,,2013-02-20 12:21:00,
2013-02-20 06:32:00,-2.0,-4.0,-100.00,East,100,3.0,6.0,90,0.00,,,-99.99,,2013-02-20 12:32:00,
2013-02-20 06:42:00,-2.0,-4.0,-100.00,East,85,3.0,4.0,90,0.00,,,-99.99,,2013-02-20 12:42:00,
2013-02-20 06:52:00,-2.0,-4.0,-100.00,East,95,3.0,6.0,90,0.00,,,-99.99,,2013-02-20 12:52:00,
2013-02-20 07:01:00,-2.0,-4.0,-100.00,East,90,5.0,7.0,90,0.00,,,-99.99,,2013-02-20 13:01:00,
2013-02-20 07:11:00,-2.0,-4.0,-100.00,East,85,4.0,7.0,90,0.00,,,-99.99,,2013-02-20 13:11:00,
2013-02-20 07:22:00,-1.0,-4.0,-100.00,East,95,3.0,7.0,90,0.00,,,-99.99,,2013-02-20 13:22:00,
2013-02-20 07:31:00,-1.0,-4.0,-100.00,East,85,5.0,7.0,90,0.00,,,-99.99,,2013-02-20 13:31:00,
2013-02-20 07:42:00,-1.0,-3.0,-100.00,NE,50,1.0,6.0,90,0.00,,,-99.99,,2013-02-20 13:42:00,
2013-02-20 07:51:00,0.0,-3.0,-100.00,SE,125,4.0,6.0,89,0.00,,,-99.99,,2013-02-20 13:51:00,
2013-02-20 08:01:00,0.0,-2.0,-100.00,SE,125,2.0,6.0,88,0.00,,,-99.99,,2013-02-20 14:01:00,
2013-02-20 08:11:00,1.0,-2.0,-100.00,SE,140,2.0,6.0,87,0.00,,,-99.99,,2013-02-20 14:11:00,
2013-02-20 08:32:00,2.0,-1.0,-100.00,SE,140,6.0,8.0,86,0.00,,,-99.99,,2013-02-20 14:32:00,
2013-02-20 08:42:00,2.0,-1.0,-100.00,SE,140,2.0,6.0,86,0.00,,,-99.99,,2013-02-20 14:42:00,
2013-02-20 08:52:00,3.0,0.0,-100.00,South,170,4.0,9.0,85,0.00,,,-99.99,,2013-02-20 14:52:00,
2013-02-20 09:22:00,5.0,1.0,-100.00,SE,135,6.0,9.0,83,0.00,,,-99.99,,2013-02-20 15:22:00,
2013-02-20 09:32:00,5.0,1.0,-100.00,SSE,150,9.0,12.0,83,0.00,,,-99.99,,2013-02-20 15:32:00,
2013-02-20 09:41:00,5.0,1.0,-100.00,SSE,150,9.0,12.0,83,0.00,,,-99.99,,2013-02-20 15:41:00,
2013-02-20 09:51:00,6.0,2.0,-100.00,SE,130,7.0,11.0,82,0.00,,,-99.99,,2013-02-20 15:51:00,
2013-02-20 10:01:00,6.0,2.0,-100.00,SE,130,7.0,11.0,82,0.00,,,-99.99,,2013-02-20 16:01:00,
2013-02-20 10:11:00,9.0,4.0,-100.00,North,-999,-999.0,-999.0,80,-99.99,,,-99.99,,2013-02-20 16:11:00,
2013-02-20 10:21:00,9.0,4.0,-100.00,SE,145,7.0,10.0,79,0.00,,,-99.99,,2013-02-20 16:21:00,
2013-02-20 10:32:00,9.0,4.0,-100.00,ESE,115,6.0,9.0,78,0.00,,,-99.99,,2013-02-20 16:32:00,
2013-02-20 10:41:00,10.0,5.0,-100.00,SE,145,6.0,9.0,76,0.00,,,-99.99,,2013-02-20 16:41:00,
2013-02-20 10:52:00,11.0,5.0,-100.00,ESE,120,5.0,11.0,76,0.00,,,-99.99,,2013-02-20 16:52:00,
2013-02-20 11:01:00,11.0,5.0,-100.00,SE,140,9.0,13.0,74,0.00,,,-99.99,,2013-02-20 17:01:00,
2013-02-20 11:11:00,13.0,6.0,-100.00,South,190,7.0,12.0,72,0.00,,,-99.99,,2013-02-20 17:11:00,
2013-02-20 11:21:00,14.0,7.0,-100.00,SW,220,6.0,12.0,70,0.00,,,-99.99,,2013-02-20 17:21:00,
2013-02-20 11:32:00,15.0,6.0,-100.00,South,170,7.0,11.0,68,0.00,,,-99.99,,2013-02-20 17:32:00,
2013-02-20 11:41:00,16.0,7.0,-100.00,SW,235,4.0,12.0,67,0.00,,,-99.99,,2013-02-20 17:41:00,
2013-02-20 11:52:00,16.0,7.0,-100.00,SSW,210,7.0,12.0,66,0.00,,,-99.99,,2013-02-20 17:52:00,
2013-02-20 12:02:00,16.0,7.0,-100.00,SSW,210,7.0,12.0,66,0.00,,,-99.99,,2013-02-20 18:02:00,
2013-02-20 12:11:00,16.0,6.0,-100.00,SSW,205,6.0,14.0,65,0.00,,,-99.99,,2013-02-20 18:11:00,
2013-02-20 12:21:00,17.0,7.0,-100.00,SSE,150,7.0,12.0,64,0.00,,,-99.99,,2013-02-20 18:21:00,
2013-02-20 12:31:00,18.0,7.0,-100.00,South,185,2.0,11.0,62,0.00,,,-99.99,,2013-02-20 18:31:00,
2013-02-20 12:42:00,18.0,7.0,-100.00,South,185,2.0,11.0,62,0.00,,,-99.99,,2013-02-20 18:42:00,
2013-02-20 12:51:00,19.0,8.0,-100.00,SE,140,5.0,10.0,60,0.00,,,-99.99,,2013-02-20 18:51:00,
2013-02-20 13:01:00,19.0,8.0,-100.00,SE,140,5.0,10.0,60,0.00,,,-99.99,,2013-02-20 19:01:00,
2013-02-20 13:11:00,20.0,8.0,-100.00,SSE,155,6.0,11.0,59,0.00,,,-99.99,,2013-02-20 19:11:00,
2013-02-20 13:21:00,20.0,8.0,-100.00,SSE,160,3.0,10.0,58,0.00,,,-99.99,,2013-02-20 19:21:00,
2013-02-20 13:31:00,21.0,8.0,-100.00,SE,135,6.0,13.0,56,0.00,,,-99.99,,2013-02-20 19:31:00,
2013-02-20 13:41:00,21.0,8.0,-100.00,SE,135,6.0,13.0,56,0.00,,,-99.99,,2013-02-20 19:41:00,
2013-02-20 13:51:00,22.0,8.0,-100.00,SSE,160,7.0,14.0,53,0.00,,,-99.99,,2013-02-20 19:51:00,
2013-02-20 14:01:00,22.0,8.0,-100.00,SSE,160,7.0,14.0,53,0.00,,,-99.99,,2013-02-20 20:01:00,
2013-02-20 14:11:00,23.0,8.0,-100.00,South,185,6.0,14.0,50,0.00,,,-99.99,,2013-02-20 20:11:00,
2013-02-20 14:21:00,23.0,8.0,-100.00,South,185,6.0,14.0,50,0.00,,,-99.99,,2013-02-20 20:21:00,
2013-02-20 14:31:00,24.0,8.0,-100.00,SSW,205,7.0,12.0,49,0.00,,,-99.99,,2013-02-20 20:31:00,
2013-02-20 14:41:00,24.0,8.0,-100.00,SSW,205,7.0,12.0,49,0.00,,,-99.99,,2013-02-20 20:41:00,
2013-02-20 14:51:00,25.0,8.0,-100.00,South,170,5.0,10.0,48,0.00,,,-99.99,,2013-02-20 20:51:00,
2013-02-20 15:01:00,25.0,8.0,-100.00,South,170,5.0,10.0,48,0.00,,,-99.99,,2013-02-20 21:01:00,
2013-02-20 15:11:00,25.0,8.0,-100.00,SE,135,7.0,10.0,47,0.00,,,-99.99,,2013-02-20 21:11:00,
2013-02-20 15:21:00,25.0,8.0,-100.00,South,170,4.0,12.0,47,0.00,,,-99.99,,2013-02-20 21:21:00,
2013-02-20 15:31:00,26.0,8.0,-100.00,South,175,6.0,11.0,46,0.00,,,-99.99,,2013-02-20 21:31:00,
2013-02-20 15:41:00,26.0,8.0,-100.00,SE,145,5.0,11.0,46,0.00,,,-99.99,,2013-02-20 21:41:00,
2013-02-20 15:51:00,26.0,8.0,-100.00,South,175,4.0,11.0,45,0.00,,,-99.99,,2013-02-20 21:51:00,
2013-02-20 16:01:00,26.0,8.0,-100.00,South,180,6.0,10.0,45,0.00,,,-99.99,,2013-02-20 22:01:00,
2013-02-20 16:11:00,26.0,8.0,-100.00,SSE,150,8.0,12.0,45,0.00,,,-99.99,,2013-02-20 22:11:00,
2013-02-20 16:21:00,26.0,8.0,-100.00,SSE,150,7.0,12.0,45,0.00,,,-99.99,,2013-02-20 22:21:00,
2013-02-20 16:31:00,26.0,8.0,-100.00,SE,145,10.0,14.0,45,0.00,,,-99.99,,2013-02-20 22:31:00,
2013-02-20 16:42:00,26.0,7.0,-100.00,SSE,150,11.0,14.0,45,0.00,,,-99.99,,2013-02-20 22:42:00,
2013-02-20 16:51:00,26.0,8.0,-100.00,SSE,150,9.0,12.0,45,0.00,,,-99.99,,2013-02-20 22:51:00,
2013-02-20 17:01:00,26.0,8.0,-100.00,SSE,150,9.0,12.0,45,0.00,,,-99.99,,2013-02-20 23:01:00,
2013-02-20 17:12:00,26.0,7.0,-100.00,SE,135,9.0,13.0,45,0.00,,,-99.99,,2013-02-20 23:12:00,
2013-02-20 17:32:00,25.0,7.0,-100.00,SE,145,12.0,18.0,46,0.00,,,-99.99,,2013-02-20 23:32:00,
2013-02-20 17:42:00,25.0,7.0,-100.00,SE,140,11.0,18.0,46,0.00,,,-99.99,,2013-02-20 23:42:00,
2013-02-20 17:52:00,24.0,7.0,-100.00,SE,145,11.0,16.0,47,0.00,,,-99.99,,2013-02-20 23:52:00,
2013-02-20 18:02:00,24.0,7.0,-100.00,SE,145,11.0,16.0,47,0.00,,,-99.99,,2013-02-21 00:02:00,
2013-02-20 18:11:00,24.0,7.0,-100.00,SE,135,11.0,14.0,47,0.00,,,-99.99,,2013-02-21 00:11:00,
2013-02-20 18:21:00,24.0,7.0,-100.00,SE,135,11.0,14.0,47,0.00,,,-99.99,,2013-02-21 00:21:00,
2013-02-20 18:32:00,24.0,7.0,-100.00,SSE,160,7.0,12.0,48,0.00,,,-99.99,,2013-02-21 00:32:00,
2013-02-20 18:42:00,23.0,7.0,-100.00,SSE,165,9.0,13.0,49,0.00,,,-99.99,,2013-02-21 00:42:00,
2013-02-20 18:52:00,23.0,7.0,-100.00,SE,145,8.0,14.0,49,0.00,,,-99.99,,2013-02-21 00:52:00,
2013-02-20 19:11:00,23.0,7.0,-100.00,SE,135,8.0,13.0,49,0.00,,,-99.99,,2013-02-21 01:11:00,
2013-02-20 19:32:00,23.0,7.0,-100.00,SSE,155,9.0,16.0,50,0.00,,,-99.99,,2013-02-21 01:32:00,
2013-02-20 19:41:00,22.0,7.0,-100.00,SSE,150,6.0,16.0,51,0.00,,,-99.99,,2013-02-21 01:41:00,
2013-02-20 19:51:00,22.0,7.0,-100.00,SE,145,9.0,13.0,52,0.00,,,-99.99,,2013-02-21 01:51:00,
2013-02-20 20:01:00,22.0,8.0,-100.00,South,170,6.0,13.0,52,0.00,,,-99.99,,2013-02-21 02:01:00,
2013-02-20 20:11:00,22.0,7.0,-100.00,South,170,6.0,11.0,53,0.00,,,-99.99,,2013-02-21 02:11:00,
2013-02-20 20:21:00,22.0,8.0,-100.00,SSE,155,6.0,11.0,53,0.00,,,-99.99,,2013-02-21 02:21:00,
2013-02-20 20:32:00,21.0,8.0,-100.00,SSE,155,9.0,12.0,54,0.00,,,-99.99,,2013-02-21 02:32:00,
2013-02-20 20:42:00,21.0,8.0,-100.00,SSE,155,9.0,12.0,54,0.00,,,-99.99,,2013-02-21 02:42:00,
2013-02-20 20:51:00,21.0,8.0,-100.00,SSE,155,9.0,12.0,54,0.00,,,-99.99,,2013-02-21 02:51:00,
2013-02-20 21:01:00,21.0,8.0,-100.00,SSE,150,6.0,10.0,56,0.00,,,-99.99,,2013-02-21 03:01:00,
2013-02-20 21:12:00,20.0,8.0,-100.00,SE,145,6.0,12.0,57,0.00,,,-99.99,,2013-02-21 03:12:00,
2013-02-20 21:21:00,20.0,8.0,-100.00,North,-999,-999.0,-999.0,58,0.00,,,-99.99,,2013-02-21 03:21:00,
2013-02-20 21:32:00,19.0,8.0,-100.00,SE,125,6.0,11.0,60,0.00,,,-99.99,,2013-02-21 03:32:00,
2013-02-20 21:41:00,19.0,8.0,-100.00,North,-999,-999.0,-999.0,60,-99.99,,,-99.99,,2013-02-21 03:41:00,
2013-02-20 21:51:00,19.0,8.0,-100.00,SE,135,6.0,9.0,62,0.00,,,-99.99,,2013-02-21 03:51:00,
2013-02-20 22:01:00,19.0,8.0,-100.00,SE,130,4.0,9.0,63,0.00,,,-99.99,,2013-02-21 04:01:00,
2013-02-20 22:11:00,19.0,9.0,-100.00,SE,145,2.0,9.0,63,0.00,,,-99.99,,2013-02-21 04:11:00,
2013-02-20 22:21:00,20.0,9.0,-100.00,SE,145,4.0,11.0,64,0.00,,,-99.99,,2013-02-21 04:21:00,
2013-02-20 22:32:00,20.0,9.0,-100.00,SSE,150,6.0,9.0,64,0.00,,,-99.99,,2013-02-21 04:32:00,
2013-02-20 22:42:00,20.0,10.0,-100.00,SSE,160,6.0,10.0,65,0.00,,,-99.99,,2013-02-21 04:42:00,
2013-02-20 22:51:00,19.0,10.0,-100.00,SSE,150,6.0,9.0,65,0.00,,,-99.99,,2013-02-21 04:51:00,
2013-02-20 23:02:00,19.0,10.0,-100.00,SSE,155,4.0,8.0,66,0.00,,,-99.99,,2013-02-21 05:02:00,
2013-02-20 23:12:00,19.0,10.0,-100.00,South,180,2.0,6.0,67,0.00,,,-99.99,,2013-02-21 05:12:00,
2013-02-20 23:22:00,19.0,10.0,-100.00,SE,140,5.0,6.0,67,0.00,,,-99.99,,2013-02-21 05:22:00,
2013-02-20 23:33:00,20.0,11.0,-100.00,SSE,155,4.0,6.0,68,0.00,,,-99.99,,2013-02-21 05:33:00,
2013-02-20 23:43:00,20.0,11.0,-100.00,SE,145,4.0,7.0,68,0.00,,,-99.99,,2013-02-21 05:43:00,
2013-02-20 23:52:00,20.0,12.0,-100.00,SSE,150,6.0,10.0,69,0.00,,,-99.99,,2013-02-21 05:52:00,